Weather in Pristanskoye

Russia / Omsk Oblast     54°27′56″N   74°20′45″E
temp.,
°C
wind,
m/s
gust,
m/s
humid.,
%
clouds,
%
prec.,
mm/h
press.,
hPa
HPBL,
m
28 september, tue
tue2800:00+5e6106798 0.0 1023898
03:00+5e6960100 0.0 1022908
06:00+5e5962100 0.0 1022916
09:00+6e6956100 0.0 10221063
12:00+8e81046100 0.0 10191397
15:00+10e81040100 0.0 10171654
18:00+8e71047100 0.0 10161266
21:00+6ene61158100 0.0 1015934
29 september, wed
wed2900:00+5ene61070100 0.6 1014864
03:00+4ne71176100 0.3 1012676
06:00+4ne61172100 0.3 1013615
09:00+4ne61071100 0.0 1013695
12:00+7ne6855100 0.0 10141291
15:00+8nne6747100 0.0 10141599
18:00+7nne5753100 0.1 1015984
21:00+5n376576 0.0 1016189
30 september, thu
thu3000:00+4nnw3674100 0.0 1017123
03:00+3n378599 0.0 1017184
06:00+4nnw3684100 0.0 1018471
09:00+3nnw4682100 0.0 1019406
12:00+6nnw4563100 0.0 10191124
15:00+6nw5559100 0.1 10191364
18:00+6nw3660100 0.1 1019943
21:00+5nw3662100 0.0 1020688
1 october, fri
fri100:00+5wnw3664100 0.0 1020685
03:00+4w376798 0.0 1019206
06:00+2w4874100 0.0 1019166
09:00+3w5961100 0.0 1019365
12:00+7wnw784695 0.0 10191056
15:00+8wnw8954100 0.0 10191482
18:00+4nw5895100 0.1 1020657
21:00+3nnw488456 0.3 1022696
2 october, sat
sat200:000nnw48885 0.3 1024281
03:00−1nw38885 0.0 1025200
06:00−2nw38945 0.0 1026203
09:00−1nnw578791 0.0 1028427
12:00+1nw4471100 0.0 1029864
15:00+4wnw355481 0.0 10301209
18:00+4wnw235366 0.0 103057
21:00+1w226687 0.0 103014